Weather History for Mobile, AL

Change the Weather History Date:

Tuesday, January 8, 2013

  Actual Average Record
Temperature  
Mean Temperature 57 °F 50 °F  
Max Temperature 68 °F 60 °F 77 °F (1939)
Min Temperature 46 °F 40 °F 18 °F (1886)
Degree Days  
Heating Degree Days 8 15  
Month to date heating degree days 119 120  
Since 1 July heating degree days 720 782  
Cooling Degree Days 0 0  
Month to date cooling degree days 0 0  
Year to date cooling degree days 0 0  
Growing Degree Days 7 (Base 50)    
Moisture  
Dew Point 49 °F    
Average Humidity 72    
Maximum Humidity 84    
Minimum Humidity 59    
Precipitation  
Precipitation 0.00 in 0.18 in 2.48 in (1964)
Month to date precipitation 0.61 1.37  
Year to date precipitation 0.61 1.37  
Snow  
Snow 0.00 in 0.00 in 0.00 in (2002)
Month to date snowfall 0.0 0.0  
Since 1 July snowfall 0.0 T  
Snow Depth 0.00 in    
Sea Level Pressure  
Sea Level Pressure 30.19 in    
Wind  
Wind Speed 7 mph (East)    
Max Wind Speed 15 mph    
Max Gust Speed 20 mph    
Visibility 10 miles    
Events      
T = Trace of Precipitation, MM = Missing Value Source: NWS Daily Summary

Daily Weather History Graph

Daily Weather History Graph

Search for Another Location

Airport:

Trip Planner

Search our weather history database for the weather conditions in past years. The results will help you decide how hot, cold, wet, or windy it might be!

Date:

Astronomy

Jan. 08, 2013 Rise Set
Actual Time 6:51 AM CST 5:08 PM CST
Civil Twilight 6:25 AM CST 5:34 PM CST
Nautical Twilight 5:55 AM CST 6:04 PM CST
Astronomical Twilight 5:26 AM CST 6:33 PM CST
Moon 3:25 AM CST (1/8) 2:09 PM CST (1/8)
Length of Visible Light 11h 09m
Length of Day
10h 17m
Waning Crescent, 13% of the Moon is Illuminated
Jan 8
Waning Crescent
Jan 11
New
Jan 18
First Quarter
Jan 26
Full
Feb 3
Last Quarter

Hourly Weather History & Observations

Time (CST) Temp. Windchill Dew Point Humidity Pressure Visibility Wind Dir Wind Speed Gust Speed Precip Events Conditions
12:56 AM 48.9 °F - 37.0 °F 64% 30.20 in 10.0 mi East 8.1 mph - N/A   Mostly Cloudy
1:56 AM 48.9 °F - 37.0 °F 64% 30.19 in 10.0 mi East 6.9 mph - N/A   Overcast
2:56 AM 48.0 °F - 37.9 °F 68% 30.19 in 10.0 mi ENE 5.8 mph - N/A   Mostly Cloudy
3:56 AM 48.9 °F - 39.0 °F 69% 30.18 in 10.0 mi NE 5.8 mph - N/A   Mostly Cloudy
4:56 AM 48.0 °F - 39.0 °F 71% 30.18 in 10.0 mi ENE 5.8 mph - N/A   Mostly Cloudy
5:56 AM 46.0 °F 44.8 °F 39.0 °F 76% 30.20 in 10.0 mi ENE 3.5 mph - N/A   Scattered Clouds
6:18 AM 48.2 °F - 39.2 °F 71% 30.20 in 7.0 mi ENE 5.8 mph - N/A   Mostly Cloudy
6:27 AM 48.2 °F - 39.2 °F 71% 30.19 in 7.0 mi East 9.2 mph - N/A   Overcast
6:53 AM 48.2 °F - 41.0 °F 76% 30.21 in 7.0 mi ENE 5.8 mph - N/A   Overcast
6:56 AM 48.9 °F - 41.0 °F 74% 30.21 in 7.0 mi ENE 4.6 mph - N/A   Overcast
7:11 AM 48.2 °F - 42.8 °F 82% 30.22 in 10.0 mi NE 5.8 mph - N/A   Overcast
7:56 AM 51.1 °F - 43.0 °F 74% 30.24 in 7.0 mi ENE 5.8 mph - N/A   Mostly Cloudy
8:12 AM 51.8 °F - 44.6 °F 76% 30.23 in 10.0 mi ENE 8.1 mph - N/A   Mostly Cloudy
8:56 AM 53.1 °F - 45.0 °F 74% 30.25 in 7.0 mi East 6.9 mph - N/A   Mostly Cloudy
9:56 AM 57.0 °F - 48.0 °F 72% 30.25 in 10.0 mi East 6.9 mph - N/A   Overcast
10:56 AM 61.0 °F - 50.0 °F 67% 30.24 in 10.0 mi East 5.8 mph - N/A   Overcast
11:56 AM 64.0 °F - 52.0 °F 65% 30.21 in 10.0 mi East 6.9 mph - N/A   Mostly Cloudy
12:56 PM 68.0 °F - 54.0 °F 61% 30.18 in 10.0 mi ESE 10.4 mph - N/A   Mostly Cloudy
1:56 PM 66.9 °F - 55.9 °F 68% 30.17 in 10.0 mi East 6.9 mph - N/A   Mostly Cloudy
2:56 PM 66.0 °F - 55.9 °F 70% 30.17 in 10.0 mi East 9.2 mph - N/A   Mostly Cloudy
3:47 PM 66.2 °F - 55.4 °F 68% 30.16 in 10.0 mi East 8.1 mph - N/A   Mostly Cloudy
3:56 PM 66.0 °F - 55.9 °F 70% 30.16 in 10.0 mi East 10.4 mph - N/A   Mostly Cloudy
4:09 PM 66.2 °F - 55.4 °F 68% 30.16 in 10.0 mi East 10.4 mph - N/A   Mostly Cloudy
4:56 PM 64.0 °F - 55.9 °F 75% 30.15 in 10.0 mi East 8.1 mph - N/A   Mostly Cloudy
5:14 PM 62.6 °F - 55.4 °F 77% 30.15 in 10.0 mi East 8.1 mph - N/A   Mostly Cloudy
5:56 PM 62.1 °F - 55.0 °F 78% 30.16 in 10.0 mi East 8.1 mph - N/A   Mostly Cloudy
6:25 PM 62.6 °F - 55.4 °F 77% 30.18 in 10.0 mi East 6.9 mph - N/A   Mostly Cloudy
6:56 PM 62.1 °F - 55.9 °F 80% 30.17 in 10.0 mi East 9.2 mph - N/A   Overcast
7:56 PM 61.0 °F - 55.0 °F 81% 30.16 in 10.0 mi East 9.2 mph - N/A   Overcast
8:03 PM 60.8 °F - 55.4 °F 82% 30.17 in 10.0 mi East 11.5 mph - N/A   Overcast
8:56 PM 61.0 °F - 55.9 °F 83% 30.17 in 10.0 mi East 8.1 mph - N/A   Overcast
9:56 PM 61.0 °F - 55.0 °F 81% 30.19 in 10.0 mi East 6.9 mph - N/A   Overcast
10:03 PM 60.8 °F - 55.4 °F 82% 30.19 in 10.0 mi East 6.9 mph - N/A   Overcast
10:56 PM 61.0 °F - 55.0 °F 81% 30.20 in 10.0 mi ENE 4.6 mph - N/A   Overcast
11:56 PM 61.0 °F - 54.0 °F 78% 30.18 in 10.0 mi East 8.1 mph - N/A   Mostly Cloudy